Página principal
METAR-TAF:

METAR-TAF

Aeroportos :

David Wayne Hooks Memorial Airport

Houston / Tomball, Texas, Estados Unidos

latitude: 30-04-03N, longitude: 095-33-22W, altura: 46 m

Observação actual do tempo

O boletim foi feito há 57 minutos, às 16:53 UTC
Vento 5 kt de sudeste
Temperatura 19°C
Humidade 46%
Pressão 1025 hPa
Visibilidade: 16.1 km
Encobertoa uma altura de 9000 ft

METAR: KDWH 201653Z 14005KT 10SM OVC090 19/07 A3027 RMK AO2 SLP249 T01940072

Hora: 12:50 (17:50 UTC)


TAF: em falta

Observações e previsões do tempo de mais de 4000 aeroportos (mensagens METAR e TAF).

As estações disponíveis são os pontos amarelos e vermelhos sobre o mapa.

Mova o rato sobre o mapa para ver o nome da estação.

Depois clique no ponto para visualizar as observações e previsões meteorológicas.

Para alterar o mapa : clique nos botões verdes com uma cruz preta para aumentar o zoom; no botão verde com uma pitada de zoom; ou nas setas verdes para mapas adjacentes.


METAR-TAF: